COSMOS 2251 DEB, 37487

Orbit data source: Space-Track

COSMOS 2251 DEB, 37487 is space debris in LEO originally from a launch on Wed, 16 Jun 1993 UTC launched from the Plesetsk Missile And Space Complex (PKMTR). The debris from Iridium 33, an American commercial communications satellite, has been tracked extensively since its accidental collision with the defunct Russian satellite Cosmos 2251 in 2009. This event, occurring at high speed in low Earth orbit (LEO), generated thousands of pieces of space debris, significantly increasing the risk of further collisions. The Iridium 33 debris cloud has impacted space traffic management and orbital debris mitigation strategies, making it a subject of ongoing study in space situational awareness.

Loading next visibility...
Identifier
37487, 1993-036BLQ
Orbit
LEO
Country
Flag of CISCIS
Related business
Manufacturer
Unknown
Mission
Spacecraft
Bus & Motor
Unknown
Mass
Unknown
Launch date (UTC)
1993-06-16 (33 years ago)
Launch vehicle
Unknown
Launch site
Plesetsk Missile And Space Complex (PKMTR)
Object type
Payload
Rocket body
Debris
Shape & HBR
Unknown shape, 0.1 m
Radar Cross Section
Small (<0.1 m²)

Expand to show TLE details & history
Last TLE update: 1 week ago

TLE from 1 week ago
0 COSMOS 2251 DEB
1 37487U 93036BLQ 26028.50270116  .00040396  00000-0  47676-2 0  9994
2 37487  73.9008  98.8711 0031927 289.8567  69.9171 14.84142199819384
Epoch: 2026-01-28T12:03Z
TLE epoch observation values (Epoch: 2026-01-28T12:03:53.380Z)
Latitude
0.00005°
Longitude
150.12987°
Altitude
611.335 km
Speed
7.558 km/s
True Right ascension
06h 35m 29s
True Declination
0° 00' 00"
Sunlit
Object was in full shadow at epoch
Visualization orbit readout
Latitude
Unknown
Longitude
Unknown
Altitude
Unknown
Speed
Unknown
Apparent Right ascension
Unknown
Apparent Declination
Unknown
Sunlit
N/A
Visualization observer readout
Local Sidereal Time
23:05:03
Azimuth
Unknown
Elevation
Unknown
Doppler factor
Unknown
Orbital elements
Apogee altitude
636.186 km
Perigee altitude
591.539 km
Semi-major axis
6,991.999 km
Eccentricity
0.00319
Inclination
73.9008°
RAAN
98.8711°
Arg. of periapsis
289.8567°
True anomaly
70.26118°
Mean anomaly
69.9171°
Eccentric anomaly
70.08909°
Mean motion
3.71228 °/min
Orbital period
96.98 mins
BSTAR
0.0047676
Loading maneuver chart data...
Computing Atmospheric mass density...

Documentation

Showing up to 5 results
|